Probability
3 7 15 19 15 12 14 13 10 7 4 1 0 0 0 1 6 11 17 31 41 40 34 24 14 7 3 2 2 3 2 2 1 0 0 0 0 0 0 0 0 0 1
16 21 29 31 23 19 24 25 19 15 10 5 3 3 4 4 9 16 22 30 38 40 37 30 21 13 9 7 4 3 2 2 1 1 1 0 0 1 1 2 2 3 3
42 47 49 46 39 35 41 42 35 29 24 18 15 14 14 14 17 23 27 29 32 36 39 36 29 22 18 14 7 4 3 3 2 2 2 1 1 2 4 6 7 7 8
63 66 64 58 55 54 54 52 49 46 41 37 34 32 30 30 29 29 28 26 25 29 33 33 30 27 24 19 12 7 6 6 6 6 5 4 4 6 8 10 11 11 10
71 74 72 68 67 66 62 57 57 57 54 49 46 43 41 40 38 34 28 21 19 22 22 21 22 25 25 22 16 10 8 9 9 9 7 7 8 10 12 12 10 8 6
74 76 75 71 70 70 66 61 58 57 53 49 43 39 37 36 34 32 25 18 15 14 12 9 11 15 19 19 15 10 9 9 9 8 7 6 7 9 10 8 5 2 1
71 70 68 66 65 65 61 57 53 48 43 39 33 26 23 22 21 19 16 14 10 7 5 3 3 5 8 9 8 6 7 8 6 5 3 3 4 4 4 3 1 0 0
56 54 53 53 52 49 45 42 40 36 30 24 19 13 9 8 7 6 6 6 4 3 2 0 0 1 1 2 2 2 4 4 3 1 1 1 1 1 1 1 0 0 0
37 35 34 34 33 32 29 26 24 22 18 12 8 6 3 2 0 0 1 1 1 1 1 0 0 0 0 0 0 0 1 1 0 0 0 0 0 0 0 0 0 1 1
21 21 19 19 19 18 17 13 11 10 8 5 3 3 2 1 0 0 0 0 0 0 0 0 0 0 0 0 0 0 0 0 0 0 0 0 0 0 0 0 0 0 0
9 9 8 8 8 8 7 5 4 3 2 1 1 1 1 0 0 0 0 0 0 0 0 0 0 0 0 0 0 0 0 0 0 0 0 0 0 0 0 0 0 0 0
2 2 2 2 2 1 1 2 1 1 0 0 0 0 0 0 0 0 0 0 0 0 0 0 0 0 0 0 0 0 0 0 0 0 0 0 0 0 0 0 0 0 0
0 0 0 0 0 0 0 0 0 0 0 0 0 0 0 0 0 0 0 0 0 0 0 0 0 0 0 0 0 0 0 0 0 0 0 0 0 0 0 0 0 0 0
0 0 0 0 0 0 0 0 0 0 0 0 0 0 0 0 0 0 0 0 0 0 0 0 0 0 0 0 0 0 0 0 0 0 0 0 0 0 0 0 0 0 0
0 0 0 0 0 0 0 0 0 0 0 0 0 0 0 0 0 0 0 0 0 0 0 0 0 0 0 0 0 0 0 0 0 0 0 0 0 0 0 0 0 0 0
0 0 0 0 0 0 0 0 0 0 0 0 0 0 0 0 0 0 0 0 0 0 0 0 0 0 0 0 0 0 0 0 0 0 0 0 0 0 0 0 0 0 0
0 0 0 0 0 0 0 0 0 0 0 0 0 0 0 0 0 0 0 0 0 0 0 0 0 0 0 0 0 0 0 0 0 0 0 0 0 0 0 0 0 0 0
0 0 0 0 0 0 0 0 0 0 0 0 0 0 0 0 0 0 0 0 0 0 0 0 0 0 0 0 0 0 0 0 0 0 0 0 0 0 0 0 0 0 0
0 0 0 0 0 0 0 0 0 0 0 0 0 0 0 0 0 0 0 0 0 0 0 0 0 0 0 0 0 0 0 0 0 0 0 0 0 0 0 0 0 0 0
0 0 0 0 0 0 0 0 0 0 0 0 0 0 0 0 0 0 0 0 0 0 0 0 0 0 0 0 0 0 0 0 0 0 0 0 0 0 0 0 0 0 0
0 0 0 0 0 0 0 0 0 0 0 0 0 0 0 0 0 0 0 0 0 0 0 0 0 0 0 0 0 0 0 0 0 0 0 0 0 0 0 0 0 0 0
0 0 0 0 0 0 0 0 0 0 0 0 0 0 0 0 0 0 0 0 0 0 0 0 0 0 0 0 0 0 0 0 0 0 0 0 0 0 0 0 0 0 0
0 0 0 0 0 0 0 0 0 0 0 0 0 0 0 0 0 0 0 0 0 0 0 0 0 0 0 0 0 0 0 0 0 0 0 0 0 0 0 0 0 0 0
0 0 0 0 0 0 0 0 0 0 0 0 0 0 0 0 0 0 0 0 0 0 0 0 0 0 0 0 0 0 0 0 0 0 0 0 0 0 0 0 0 0 0
0 0 0 0 0 0 0 0 0 0 0 0 0 0 0 0 0 0 0 0 0 0 0 0 0 0 0 0 0 0 0 0 0 0 0 0 0 0 0 0 0 0 0
0 0 0 0 0 0 0 0 0 0 0 0 0 0 0 0 0 0 0 0 0 0 0 0 0 0 0 0 0 0 0 0 0 0 0 0 0 0 0 0 0 0 0
Wind_Speed
3 2 2 3 3 3 5 4 4 2 1 2 3 4 3 1 2 5 6 12 12 12 12 12 11 10 10 9 8 7 6 6 5 4 3 3 2 2 2 2 1 1 1
3 1 1 1 1 1 0 1 2 0 0 2 3 4 3 2 2 5 5 7 10 10 10 11 11 11 10 10 9 8 7 6 6 5 4 3 3 2 2 2 2 2 1
2 2 1 1 1 1 1 1 2 1 1 2 3 4 3 3 1 3 5 4 5 8 9 8 8 9 9 10 9 8 7 7 6 5 5 4 4 3 3 3 3 3 3
3 2 1 0 0 1 1 0 1 1 1 1 1 2 2 2 2 0 2 3 3 4 5 7 7 7 8 8 8 8 7 6 6 6 5 5 4 4 3 4 4 3 3
3 3 2 1 1 1 1 1 0 1 1 2 2 1 1 2 2 2 2 2 2 2 3 5 6 6 6 6 5 5 5 5 5 5 5 5 5 4 5 5 5 4 4
2 2 2 1 0 1 1 1 1 1 1 1 3 2 1 1 2 3 3 3 2 3 2 3 3 3 4 4 3 3 3 3 3 4 4 4 4 4 5 6 6 6 6
3 2 1 2 1 1 1 0 0 1 1 1 1 2 2 1 2 2 2 2 3 3 3 3 2 2 2 3 3 3 2 2 2 2 2 2 2 2 3 5 6 7 8
5 3 3 3 2 2 2 2 1 0 1 1 0 1 2 1 1 1 1 2 2 3 3 3 3 3 3 2 4 6 7 6 5 5 5 5 5 4 4 5 6 8 9
7 7 6 5 4 3 2 2 1 0 0 1 1 0 1 2 0 1 1 2 2 2 2 2 3 3 3 4 4 6 8 8 6 6 7 8 8 8 8 8 9 10 11
9 9 8 7 6 5 4 4 4 3 2 1 1 1 1 1 1 1 0 1 1 2 2 2 2 3 3 4 5 8 7 7 6 6 7 8 9 10 10 11 11 12 13
11 10 9 8 7 6 7 7 6 6 4 4 3 1 1 1 2 0 1 1 1 0 0 0 1 1 1 2 4 6 6 4 3 4 6 8 10 11 12 13 13 14 14
9 11 10 8 8 7 8 7 7 8 6 6 5 4 3 3 2 2 1 1 1 1 2 1 1 1 1 1 4 7 5 4 2 3 5 8 10 12 14 15 15 16 16
8 9 9 8 8 8 8 7 8 8 7 7 6 4 4 4 3 2 2 2 2 2 1 1 2 1 1 2 3 4 4 5 6 6 7 9 11 13 14 15 16 17 17
8 9 9 9 9 9 9 8 7 7 7 7 8 7 4 4 4 3 2 2 3 2 2 1 0 1 1 2 4 3 3 5 7 8 10 12 13 14 14 15 15 16 17
8 10 9 9 9 9 8 7 7 7 7 7 6 6 5 4 4 3 3 2 2 3 3 2 2 1 1 1 3 2 3 7 9 11 13 14 15 15 15 15 16 16 17
8 8 8 8 8 7 7 6 5 6 6 5 4 5 5 4 4 4 3 3 2 2 3 3 3 2 3 3 3 3 4 10 11 13 15 15 15 15 16 17 17 17 17
7 7 7 6 6 6 5 5 5 5 5 4 4 4 3 2 3 3 3 3 3 3 3 4 3 4 4 4 4 4 5 6 6 12 13 13 14 16 17 18 17 17 17
6 6 5 5 5 5 4 4 5 5 4 4 4 4 4 4 5 4 4 4 3 3 3 5 4 5 5 5 5 5 6 7 5 9 10 11 14 15 16 16 17 16 16
6 5 5 5 5 6 6 5 5 4 4 4 4 4 4 5 5 5 5 4 4 5 4 4 5 4 4 5 5 5 6 4 7 9 9 9 11 14 16 16 17 16 15
5 5 5 5 7 8 9 8 8 5 4 3 3 3 3 3 4 5 5 5 5 6 5 5 5 5 4 4 4 4 5 4 5 7 7 7 8 11 14 15 16 16 14
5 4 5 6 6 7 8 9 8 7 6 4 4 4 4 2 1 3 4 4 5 5 6 6 6 6 5 5 5 4 6 6 6 4 3 5 5 4 5 9 12 13 12
5 5 5 6 8 7 8 10 9 8 7 5 4 4 4 1 1 4 7 8 8 7 6 6 7 7 7 6 5 5 5 6 5 4 4 6 5 4 4 3 5 8 10
4 4 5 6 7 6 7 9 11 8 7 5 4 3 5 4 4 6 7 9 9 10 11 8 8 8 8 7 6 7 6 7 7 6 5 6 5 5 4 3 5 7 9
3 3 4 5 6 5 5 8 13 8 6 4 3 3 3 3 5 6 8 8 8 7 7 6 6 8 8 6 5 6 8 8 8 5 4 5 5 4 5 2 7 9 9
2 2 3 4 4 3 3 7 10 8 4 5 5 4 3 4 4 6 7 8 8 7 8 8 10 12 14 14 10 5 6 6 7 6 3 3 4 4 4 3 2 7 9
2 2 3 3 3 4 2 5 8 6 6 6 5 3 3 3 6 6 6 7 8 8 9 11 9 9 9 10 10 7 6 6 6 5 3 3 3 3 4 3 2 2 4
Wind_Direction
218 203 164 154 192 184 182 203 224 218 249 275 273 276 283 303 112 124 147 171 168 170 174 181 187 192 194 194 195 196 197 201 203 198 199 207 219 221 223 221 219 220 226
176 139 118 119 304 317 139 175 269 148 233 301 307 309 309 325 98 124 147 172 175 175 179 186 192 195 197 197 197 198 199 202 199 195 196 197 199 204 214 215 208 195 173
135 124 100 127 232 286 21 8 327 347 291 285 294 304 321 341 21 119 143 153 171 178 176 183 191 196 200 201 201 202 202 200 201 202 201 198 197 200 201 199 197 186 171
130 125 116 86 45 10 36 25 338 327 314 310 299 306 325 347 340 81 135 149 157 167 172 174 178 191 202 205 206 206 204 203 206 209 210 209 203 201 199 197 188 174 161
149 141 143 122 86 77 23 307 21 336 328 328 300 277 341 332 328 334 42 89 97 109 139 160 162 173 187 195 198 202 205 209 210 213 218 220 219 215 208 206 198 190 187
134 134 140 137 109 80 51 10 5 355 340 339 310 324 329 347 1 17 14 43 73 84 102 130 144 166 168 179 179 189 208 217 219 226 236 240 240 235 225 221 216 212 213
92 93 93 91 83 85 78 11 7 302 345 12 335 314 312 355 22 14 17 26 40 55 64 88 106 102 118 115 106 106 91 78 63 29 335 313 307 274 252 244 240 236 233
62 75 64 56 54 57 53 42 32 225 77 37 359 303 295 280 286 360 20 28 31 45 53 57 73 83 94 99 91 90 75 62 48 34 17 4 354 329 292 275 266 259 252
53 51 53 52 41 37 39 34 11 311 134 76 62 103 269 276 23 42 26 26 30 39 47 56 69 72 89 95 96 80 78 66 50 30 17 5 349 333 318 303 286 275 269
52 47 48 54 54 46 40 29 28 22 33 74 85 79 72 29 333 308 36 42 43 40 24 30 55 61 75 93 106 104 87 70 49 21 1 347 335 327 321 313 301 292 284
54 48 44 48 51 51 50 50 48 46 40 42 39 35 56 42 31 348 316 349 347 8 16 45 62 72 99 127 127 122 109 93 55 360 335 324 318 311 307 304 302 298 292
57 52 52 51 52 52 50 50 54 55 52 51 45 41 44 39 17 8 351 326 317 287 239 198 192 188 189 157 140 146 158 173 215 271 293 302 305 303 300 298 296 294 293
63 55 56 55 55 56 55 54 56 53 50 53 52 43 44 43 24 359 354 337 315 291 272 212 198 189 185 129 140 177 211 224 234 246 262 279 289 294 295 295 294 293 292
68 62 59 57 55 53 54 54 53 52 48 47 46 38 33 35 24 17 4 349 334 329 321 329 196 184 164 126 155 213 268 273 260 248 250 262 273 279 282 285 287 289 289
73 66 63 60 55 51 50 55 55 48 44 40 40 35 26 23 15 5 358 355 346 331 328 351 355 336 347 111 180 243 268 274 264 246 247 252 260 267 271 275 278 281 282
77 77 72 68 63 56 51 52 57 50 50 41 38 39 25 11 1 351 345 332 327 330 327 337 333 352 354 327 293 283 277 280 269 256 252 251 253 257 262 268 274 277 280
79 78 76 75 70 63 56 53 53 55 50 38 28 29 17 359 358 339 343 343 350 356 331 314 321 328 326 307 300 290 286 274 267 265 260 253 250 252 256 262 268 272 275
84 84 81 77 74 68 58 52 47 47 41 32 22 14 7 11 4 360 350 340 339 326 316 315 311 304 304 297 289 287 292 296 298 297 277 253 246 248 252 257 261 264 266
85 80 77 72 64 56 41 29 31 37 30 24 18 9 10 14 9 2 337 339 334 335 322 307 303 300 297 302 307 299 301 299 301 301 291 265 254 254 253 254 256 257 258
88 82 75 68 66 52 36 19 6 8 13 9 6 355 1 17 16 351 333 346 340 330 318 308 301 301 300 309 317 314 309 303 297 299 301 293 274 262 256 256 256 257 256
84 77 72 69 74 64 34 18 354 357 353 353 356 350 340 4 4 303 325 335 326 321 317 314 313 313 320 332 326 318 313 310 297 288 301 300 294 282 268 259 257 254 252
62 60 60 63 57 53 30 15 1 340 329 338 346 338 324 84 317 278 286 288 285 291 302 308 308 312 317 319 316 315 315 315 310 311 320 303 298 293 283 269 238 230 238
67 57 60 77 85 61 19 1 354 325 310 319 325 326 339 17 18 355 333 310 290 273 259 262 281 291 299 303 311 313 310 306 296 293 300 295 296 292 287 279 219 223 235
64 63 61 80 100 77 15 357 343 318 303 318 328 340 349 21 33 358 330 321 313 307 288 263 258 272 284 294 300 294 292 293 290 288 288 285 296 298 299 267 227 228 239
50 75 71 78 102 104 16 358 348 319 339 347 343 2 360 32 34 349 325 318 317 316 321 315 282 273 276 278 271 279 286 294 303 305 308 292 297 306 296 288 238 230 249
31 49 64 70 89 99 61 354 349 341 355 348 346 4 72 5 337 332 321 315 311 317 324 317 306 294 282 275 268 243 258 280 294 300 311 312 304 321 313 310 326 288 260